Header for Extended Forecast Station List Page

Search by: ID | Name | Date | Parm | Value | Avg | % Avg
Sort by: ID | Name | Date | Parm | Value | Avg | % Avg

Enter search or view all records.

Click on id for station plot
#IDNameDateParmValueAvg% Avg
0HWRI1BIG LOST-AT HOWELL RANCH NEAR CHILLY08-08-2022DISCHARGE (KAF)232686
1MACI1BIG LOST-MACKAY RESERVOIR NEAR MACKAY08-08-2022INFLOW (KAF)344477
2HALI1BIG WOOD-AT HAILEY08-08-2022DISCHARGE (KAF)374287
3MAGI1BIG WOOD-MAGIC DAM08-08-2022INFLOW (KAF)152463
4BITM8BITTERROOT-NEAR MISSOULA08-08-2022DISCHARGE (KAF)17620486
5BONM8BLACKFOOT-NEAR BONNER08-08-2022DISCHARGE (KAF)12514785
6BIGI1BOISE-AT GLENWOOD BRIDGE08-08-2022DISCHARGE (KAF)9611882
7LUCI1BOISE-LUCKY PEAK DAM08-08-2022INFLOW (KAF)21422396
8PARI1BOISE-NEAR PARMA08-08-2022DISCHARGE (KAF)18320490
9HOTI1BRUNEAU-NEAR HOT SPRINGS08-08-2022DISCHARGE (KAF)151691
10BULO3BULLY CREEK-BULLY CREEK DAM08-08-2022INFLOW (KAF)10309
11BUDW1BUMPING-BUMPING LAKE DAM08-08-2022INFLOW (KAF)2925118
12CHDW1CHELAN-LAKE CHELAN DAM08-08-2022INFLOW (KAF)234178131
13ABOM8CLARK FORK-ABOVE MISSOULA08-08-2022DISCHARGE (KAF)31333095
14DLGM8CLARK FORK-AT DEER LODGE08-08-2022DISCHARGE (KAF)4841117
15SRGM8CLARK FORK-AT ST REGIS08-08-2022DISCHARGE (KAF)64070291
16BELM8CLARK FORK-BELOW MISSOULA08-08-2022DISCHARGE (KAF)49054490
17CABI1CLARK FORK-CABINET GORGE DAM08-08-2022INFLOW (KAF)29842812106
18NOXM8CLARK FORK-NOXON RAPIDS DAM08-08-2022INFLOW (KAF)27112554106
19DRMM8CLARK FORK-NR DRUMMOND08-08-2022DISCHARGE (KAF)115110105
20CLUW1CLE ELUM-CLE ELUM LAKE08-08-2022INFLOW (KAF)10482126
21ORFI1CLEARWATER-AT OROFINO08-08-2022DISCHARGE (KAF)45046896
22SPDI1CLEARWATER-AT SPALDING08-08-2022DISCHARGE (KAF)15531403111
23COEI1COEUR D ALENE-COEUR D ALENE LAKE08-08-2022INFLOW (KAF)23828185
24CIBW1COLUMBIA-AT INTL BOUNDARY08-08-2022DISCHARGE (KAF)192701955799
25BONO3COLUMBIA-BONNEVILLE DAM08-08-2022INFLOW (KAF)2835528404100
26CHJW1COLUMBIA-CHIEF JOSEPH DAM08-08-2022INFLOW (KAF)1947219498100
27GCDW1COLUMBIA-GRAND COULEE DAM08-08-2022INFLOW (KAF)2006319088105
28JDAO3COLUMBIA-JOHN DAY DAM08-08-2022INFLOW (KAF)2710026923101
29MCDW1COLUMBIA-MCNARY DAM08-08-2022INFLOW (KAF)265052665899
30PRWW1COLUMBIA-PRIEST RAPIDS DAM08-08-2022INFLOW (KAF)205392090398
31RRHW1COLUMBIA-ROCKY REACH DAM08-08-2022INFLOW (KAF)202332044299
32TDAO3COLUMBIA-THE DALLES DAM08-08-2022INFLOW (KAF)2781327539101
33WANW1COLUMBIA-WANAPUM DAM08-08-2022INFLOW (KAF)205372081299
34WELW1COLUMBIA-WELLS DAM08-08-2022INFLOW (KAF)199402004999
35DEDI1DEADWOOD-NEAR LOWMAN08-08-2022INFLOW (KAF)151787
36MODO3DESCHUTES-AT MOODY NR BIGGS08-08-2022DISCHARGE (KAF)1130113999
37ARDW1ENTIAT-NEAR ARDENVOIR08-08-2022DISCHARGE (KAF)2826108
38CHEI1FALL RIVER-NEAR CHESTER08-08-2022DISCHARGE (KAF)10410996
39CFMM8FLATHEAD-AT COLUMBIA FALLS08-08-2022DISCHARGE (KAF)10371025101
40KERM8FLATHEAD-SELI’Š KSANKA QLISPE’ DAM08-08-2022INFLOW (KAF)1179125994
41TRYO3GRANDE RONDE-TROY08-08-2022DISCHARGE (KAF)15217885
42REXI1HENRYS FORK-AT REXBURG08-08-2022DISCHARGE (KAF)382341112
43ANTI1HENRYS FORK-AT ST. ANTHONY08-08-2022DISCHARGE (KAF)30431796
44IPDI1HENRYS FORK-ISLAND PARK DAM08-08-2022INFLOW (KAF)136120113
45HODO3HOOD-NEAR TUCKER BRIDGE08-08-2022DISCHARGE (KAF)139109127
46SERO3JOHN DAY-AT SERVICE CK08-08-2022DISCHARGE (KAF)6363101
47KADW1KACHESS-KACHESS DAM08-08-2022INFLOW (KAF)3532108
48LAUW1KETTLE-AT LAURIER08-08-2022DISCHARGE (KAF)10010397
49PITW1KLICKITAT-NEAR PITT08-08-2022DISCHARGE (KAF)236186127
50BFEI1KOOTENAI-AT BONNERS FERRY08-08-2022STAGE (FT)MMM
51LEOI1KOOTENAI-AT LEONIA08-08-2022DISCHARGE (KAF)25942333111
52LYDM8KOOTENAI-LIBBY DAM08-08-2022INFLOW (KAF)14331295111
53LWRI1LITTLE WOOD-LITTLE WOOD DAM08-08-2022INFLOW (KAF)1211109
54BERO3MALHEUR-AGENCY VALLEY DAM08-08-2022INFLOW (KAF)81263
55WRMO3MALHEUR-WARM SPRINGS DAM08-08-2022INFLOW (KAF)1310131
56MYKO3MCKAY CREEK-NEAR PILOT ROCK08-08-2022DISCHARGE (KAF)42203
57PATW1METHOW-NEAR PATEROS08-08-2022DISCHARGE (KAF)115106109
58WGCM8MF FLATHEAD-NEAR WEST GLACIER08-08-2022DISCHARGE (KAF)207192108
59CLFW1NACHES-NEAR CLIFFDEL08-08-2022DISCHARGE (KAF)8383100
60NACW1NACHES-NEAR NACHES08-08-2022DISCHARGE (KAF)5719929
61DWRI1NF CLEARWATER-DWORSHAK DAM08-08-2022INFLOW (KAF)30234887
62FCFM8NF FLATHEAD-NEAR COLUMBIA FALLS08-08-2022DISCHARGE (KAF)257236109
63MONO3NF JOHN DAY-AT MONUMENT08-08-2022DISCHARGE (KAF)333399
64CSDI1NF PAYETTE-CASCADE DAM08-08-2022INFLOW (KAF)6866103
65TONW1OKANOGAN-NEAR TONASKET08-08-2022DISCHARGE (KAF)334265126
66OWYO3OWYHEE-OWYHEE DAM08-08-2022INFLOW (KAF)596295
67EMMI1PAYETTE-NEAR EMMETT08-08-2022DISCHARGE (KAF)294252117
68ALFW1PEND OREILLE-ALBENI FALLS DAM08-08-2022INFLOW (KAF)32252969109
69HOPI1PEND OREILLE-PEND OREILLE LAKE NR HOPE08-08-2022LAKE ELEVATION (FT)MMM
70PIHI1PORTNEUF-AT POCATELLO08-08-2022DISCHARGE (KAF)3030101
71PRTI1PRIEST-NEAR PRIEST RIVER08-08-2022DISCHARGE (KAF)194185105
72RCCM8ROCK CREEK-NEAR CLINTON08-08-2022DISCHARGE (KAF)5957102
73WHBI1SALMON-AT WHITEBIRD08-08-2022DISCHARGE (KAF)1031105498
74ARAI1SF BOISE-ANDERSON RANCH DAM08-08-2022INFLOW (KAF)7965122
75HHWM8SF FLATHEAD-HUNGRY HORSE DAM08-08-2022INFLOW (KAF)210207102
76PLDI1SF SNAKE-PALISADES DAM08-08-2022INFLOW (KAF)897100290
77SIFI1SNAKE-AB EAGLE ROCK NR IDAHO FALLS08-08-2022DISCHARGE (KAF)1039993105
78AFRI1SNAKE-AMERICAN FALLS RESERVOIR08-08-2022INFLOW (KAF)13291176113
79SNAI1SNAKE-AT BLACKFOOT08-08-2022DISCHARGE (KAF)680627109
80MILI1SNAKE-AT MILNER08-08-2022DISCHARGE (KAF)364091
81WEII1SNAKE-AT WEISER08-08-2022DISCHARGE (KAF)25642552100
82SWAI1SNAKE-BELOW SWAN FALLS08-08-2022DISCHARGE (KAF)1717174299
83BRNI1SNAKE-BROWNLEE DAM08-08-2022INFLOW (KAF)27432623105
84IHDW1SNAKE-ICE HARBOR DAM08-08-2022INFLOW (KAF)54075350101
85JLKW4SNAKE-JACKSON LAKE AT DAM08-08-2022INFLOW (KAF)134120112
86LGSW1SNAKE-LITTLE GOOSE DAM08-08-2022INFLOW (KAF)53925336101
87LGDW1SNAKE-LOWER GRANITE DAM08-08-2022INFLOW (KAF)53925324101
88LMNW1SNAKE-LOWER MONUMENTAL DAM08-08-2022INFLOW (KAF)54075338101
89ALPW4SNAKE-NEAR ALPINE08-08-2022DISCHARGE (KAF)64673588
90ANAW1SNAKE-NEAR ANATONE08-08-2022DISCHARGE (KAF)38483848100
91BFTI1SNAKE-NEAR BLACKFOOT08-08-2022DISCHARGE (KAF)690610113
92HEII1SNAKE-NEAR HEISE08-08-2022DISCHARGE (KAF)1215126496
93JKSW4SNAKE-NEAR JACKSON08-08-2022DISCHARGE (KAF)54262487
94SHYI1SNAKE-NEAR SHELLEY08-08-2022DISCHARGE (KAF)962963100
95LLKW1SPOKANE-AT LONGLAKE08-08-2022INFLOW (KAF)628622101
96SPOW1SPOKANE-AT SPOKANE08-08-2022DISCHARGE (KAF)46347598
97SJMI1ST JOE-AT ST MARIES08-08-2022STAGE (FT)MMM
98SATI1ST MARIES-NEAR SANTA08-08-2022DISCHARGE (KAF)151785
99STRM8ST. REGIS-NEAR ST. REGIS08-08-2022DISCHARGE (KAF)272799
100TNAW1TEANAWAY-BELOW FORKS08-08-2022DISCHARGE (KAF)1514110
101TEAI1TETON-NEAR ST. ANTHONY08-08-2022DISCHARGE (KAF)12913397
102RILW1TIETON-RIMROCK LAKE NEAR RIMROCK08-08-2022INFLOW (KAF)7162114
103PDTO3UMATILLA-AT PENDLETON08-08-2022DISCHARGE (KAF)2319119
104GIBO3UMATILLA-NEAR GIBBON08-08-2022DISCHARGE (KAF)1514112
105UMAO3UMATILLA-NEAR UMATILLA08-08-2022DISCHARGE (KAF)7543174
106TCHW1WALLA WALLA-NEAR TOUCHET08-08-2022DISCHARGE (KAF)3722166
107WSRI1WEISER-NEAR WEISER08-08-2022DISCHARGE (KAF)4342103
108PESW1WENATCHEE-AT PESHASTIN08-08-2022DISCHARGE (KAF)292242121
109UNDW1WHITE SALMON-NEAR UNDERWOOD08-08-2022DISCHARGE (KAF)181154118
110RIDI1WILLOW CREEK-RIRIE DAM08-08-2022INFLOW (KAF)3748
111EASW1YAKIMA-AT EASTON08-08-2022DISCHARGE (KAF)556981
112KIOW1YAKIMA-AT KIONA08-08-2022DISCHARGE (KAF)45249791
113UMTW1YAKIMA-AT UMTANUM08-08-2022DISCHARGE (KAF)451419108
114KEDW1YAKIMA-KEECHELUS LAKE08-08-2022INFLOW (KAF)4936135
115PARW1YAKIMA-NEAR PARKER08-08-2022DISCHARGE (KAF)18624277